Valparaiso, IN

4:54 PM CDT on April 25, 2017 (GMT -0500)
Porter County Municipal

Weather History for KVPZ - August, 2014

Change the Weather History Date:

Sunday, August 10, 2014

  Actual Average Record
Temperature  
Mean Temperature 74 °F 71 °F  
Max Temperature 85 °F 81 °F 91 °F (2016)
Min Temperature 62 °F 61 °F 53 °F (2008)
Degree Days  
Heating Degree Days 0 0  
Month to date heating degree days 0 0  
Since 1 June heating degree days 45 45  
Since 1 July heating degree days 25 4  
Cooling Degree Days 9 7  
Month to date cooling degree days 52 70  
Year to date cooling degree days 396 521  
Since 1 June cooling degree days 323 474  
Growing Degree Days 24 (Base 50)    
Moisture  
Dew Point 64 °F    
Average Humidity 76    
Maximum Humidity 90    
Minimum Humidity 58    
Precipitation  
Precipitation 0.04 in 0.12 in 0.54 in (2012)
Month to date precipitation 1.62 1.32  
Year to date precipitation 20.49 22.55  
Sea Level Pressure  
Sea Level Pressure 30.00 in    
Wind  
Wind Speed 6 mph (NE)    
Max Wind Speed 10 mph    
Max Gust Speed 14 mph    
Visibility 10 miles    
Events Rain    
T = Trace of Precipitation, MM = Missing Value Source: NWS Daily Summary

Daily Weather History Graph

Daily Weather History Graph

Search for Another Location

Airport or City:

Trip Planner

Search our weather history database for the weather conditions in past years. The results will help you decide how hot, cold, wet, or windy it might be!

Date:

Astronomy

Aug. 10, 2014 Rise Set
Actual Time 5:51 AM CDT 7:54 PM CDT
Civil Twilight 5:21 AM CDT 8:24 PM CDT
Nautical Twilight 4:44 AM CDT 9:01 PM CDT
Astronomical Twilight 4:04 AM CDT 9:41 PM CDT
Moon 7:39 PM CDT (8/10) 5:44 AM CDT (8/10)
Length of Visible Light 15h 02m
Length of Day
14h 02m
Full, 100% of the Moon is Illuminated
Aug 10
Full
Aug 10
Full
Aug 17
Last Quarter
Aug 25
New
Sep 2
First Quarter

Hourly Weather History & Observations

Time (CDT) Temp. Heat Index Dew Point Humidity Pressure Visibility Wind Dir Wind Speed Gust Speed Precip Events Conditions
12:53 AM 64.9 °F - 55.9 °F 73% 30.05 in 10.0 mi East 6.9 mph - N/A   Scattered Clouds
1:53 AM 64.9 °F - 55.9 °F 73% 30.05 in 10.0 mi ENE 4.6 mph - N/A   Scattered Clouds
2:53 AM 64.0 °F - 55.9 °F 75% 30.04 in 10.0 mi NE 5.8 mph - N/A   Clear
4:53 AM 63.0 °F - 57.9 °F 84% 30.03 in 10.0 mi ENE 6.9 mph - N/A   Mostly Cloudy
5:53 AM 63.0 °F - 57.9 °F 84% 30.03 in 10.0 mi ENE 5.8 mph - N/A   Clear
7:53 AM 68.0 °F - 61.0 °F 78% 30.05 in 10.0 mi ENE 8.1 mph - N/A   Mostly Cloudy
9:53 AM 75.0 °F - 64.0 °F 69% 30.03 in 10.0 mi East 4.6 mph - N/A   Partly Cloudy
10:53 AM 77.0 °F - 64.9 °F 66% 30.04 in 10.0 mi NE 4.6 mph - N/A   Mostly Cloudy
11:53 AM 80.1 °F 82.3 °F 66.9 °F 64% 30.04 in 10.0 mi ENE 4.6 mph - N/A   Mostly Cloudy
12:53 PM 81.0 °F 84.1 °F 69.1 °F 67% 30.02 in 10.0 mi ENE 6.9 mph - N/A   Mostly Cloudy
1:53 PM 82.0 °F 85.5 °F 69.1 °F 65% 30.01 in 10.0 mi ENE 9.2 mph - N/A   Mostly Cloudy
2:53 PM 84.0 °F 87.0 °F 68.0 °F 58% 29.99 in 10.0 mi East 8.1 mph - N/A   Clear
3:53 PM 81.0 °F 84.1 °F 69.1 °F 67% 29.98 in 10.0 mi NE 4.6 mph - N/A   Mostly Cloudy
4:53 PM 75.0 °F - 71.1 °F 87% 29.98 in 7.0 mi NW 8.1 mph - 0.04 in Rain Light Rain
5:53 PM 77.0 °F - 69.1 °F 76% 29.96 in 10.0 mi North 5.8 mph - 0.00 in   Partly Cloudy
6:53 PM 73.0 °F - 68.0 °F 84% 29.96 in 8.0 mi NNW 4.6 mph - N/A   Overcast
7:53 PM 72.0 °F - 66.0 °F 81% 29.95 in 8.0 mi North 5.8 mph - N/A   Clear
8:53 PM 70.0 °F - 66.0 °F 87% 29.95 in 10.0 mi Variable 3.5 mph - N/A   Overcast
9:53 PM 69.1 °F - 66.0 °F 90% 29.94 in 9.0 mi North 4.6 mph - N/A   Mostly Cloudy
11:53 PM 70.0 °F - 66.9 °F 90% 29.94 in 8.0 mi Calm Calm - N/A   Overcast